Flag for U.S.A. Weather past 2 weeks in Santa Rosa, California, U.S.A.

Now
48 °F

Clear.


Feels Like: 47 °F
Forecast: 45 / 78 °F
Wind: 3 mph from South

Location: Santa Rosa Sonoma County Airport

Current Time: Apr 17, 2015 at 10:53:24 PM

Latest Report: Apr 17, 2015 at 9:53 PM


Visibility: 10 mi

Pressure: 30.02 "Hg

Humidity: 89%

Dew point: 45 °F

Location of Santa RosaLocation

Historic Weather in Santa Rosa — Graph

°F

Santa Rosa temperature yesterday

Maximum temperature yesterday: 81 °F (at 2:53 PM)
Minimum temperature yesterday: 50 °F (at 2:53 AM)
Average temperature yesterday: 66 °F

Past Weeks' High & Low Weather Summary

 TemperatureHumidityPressure
High81 °F (Apr 16, 2:53 PM)100% (Apr 6, 6:53 AM)30.33 "Hg (Apr 6, 6:53 AM)
Low35 °F (Apr 6, 6:53 AM)12% (Apr 15, 4:53 PM)29.72 "Hg (Apr 7, 4:53 AM)
Average55 °F63%30.01 "Hg
* Reported Apr 2 9:53 PM — Apr 17 9:53 PM, Santa Rosa, Weather by CustomWeather, © 2015

Note: Actual official high and low records may vary slightly from our data, if they occured in-between our weather recording intervals... More about our weather records

Advertising

Santa Rosa weather history for previous 24 hours

 ConditionsComfort  
Time TempWeatherWind HumidityBarometerVisibility
9:53 PM
Fri, Apr 17
48 °FClear.3 mph89%30.02 "Hg10 mi
8:53 PM50 °FClear.7 mph86%30.00 "Hg10 mi
7:53 PM54 °FSunny.10 mph74%29.98 "Hg10 mi
6:53 PM63 °FSunny.10 mph54%29.98 "Hg10 mi
5:53 PM71 °FSunny.9 mph31%29.98 "Hg10 mi
4:53 PM74 °FSunny.10 mph33%29.98 "Hg10 mi
3:53 PM75 °FSunny.12 mph31%29.99 "Hg10 mi
2:53 PM77 °FSunny.10 mph23%30.01 "Hg10 mi
1:53 PM76 °FSunny.8 mph30%30.03 "Hg10 mi
12:53 PM75 °FSunny.8 mph40%30.04 "Hg10 mi
11:53 AM72 °FSunny.3 mph29%30.05 "Hg10 mi
10:53 AM67 °FSunny.No wind41%30.06 "Hg10 mi
9:53 AM60 °FSunny.No wind52%30.06 "Hg10 mi
8:53 AM53 °FSunny.No wind66%30.05 "Hg10 mi
7:53 AM47 °FSunny.No wind80%30.05 "Hg10 mi
6:53 AM41 °FClear.No wind89%30.03 "Hg10 mi
5:53 AM43 °FClear.No wind86%30.03 "Hg10 mi
4:53 AM43 °FClear.No wind82%30.02 "Hg10 mi
3:53 AM45 °FClear.No wind80%30.02 "Hg10 mi
2:53 AM46 °FClear.No wind77%30.01 "Hg10 mi
1:53 AM48 °FClear.5 mph71%30.02 "Hg10 mi
12:53 AM49 °FClear.3 mph69%30.02 "Hg10 mi
11:53 PM
Thu, Apr 16
52 °FClear.No wind55%30.02 "Hg10 mi
10:53 PM54 °FClear.3 mph47%30.01 "Hg10 mi
Weather by CustomWeather, © 2015

See weather overviewHow to use our weather pages